Time,TemperatureF,DewpointF,PressureIn,WindDirection,WindDirectionDegrees,WindSpeedMPH,WindSpeedGustMPH,Humidity,HourlyPrecipIn,Conditions,Clouds,dailyrainin,SoftwareType,DateUTC
2014-02-21 00:00:00,20.0,17.3,29.31,North,0,13.0,23.0,89,0.00,,,-99.99,Weather View 32 v60,2014-02-21 06:00:00,
2014-02-21 00:05:00,20.0,17.3,29.30,North,0,10.0,23.0,89,0.00,,,-99.99,Weather View 32 v60,2014-02-21 06:05:00,
2014-02-21 00:15:00,19.0,16.3,29.31,North,0,11.0,24.0,89,0.00,,,-99.99,Weather View 32 v60,2014-02-21 06:15:00,
2014-02-21 00:20:00,19.0,16.3,29.31,NNW,338,12.0,24.0,89,0.00,,,-99.99,Weather View 32 v60,2014-02-21 06:20:00,
2014-02-21 00:25:00,18.0,15.3,29.31,NE,45,6.0,24.0,89,0.00,,,-99.99,Weather View 32 v60,2014-02-21 06:25:00,
2014-02-21 00:30:00,18.0,15.3,29.31,North,0,8.0,24.0,89,0.00,,,-99.99,Weather View 32 v60,2014-02-21 06:30:00,
2014-02-21 00:35:00,18.0,15.3,29.31,North,0,8.0,24.0,89,0.00,,,-99.99,Weather View 32 v60,2014-02-21 06:35:00,
2014-02-21 00:40:00,18.0,15.3,29.31,North,0,6.0,24.0,89,0.00,,,-99.99,Weather View 32 v60,2014-02-21 06:40:00,
2014-02-21 00:45:00,17.0,14.3,29.31,North,0,16.0,24.0,89,0.00,,,-99.99,Weather View 32 v60,2014-02-21 06:45:00,
2014-02-21 00:50:00,17.0,14.3,29.31,NNW,338,5.0,24.0,89,0.00,,,-99.99,Weather View 32 v60,2014-02-21 06:50:00,
2014-02-21 00:55:00,17.0,14.3,29.31,NNW,338,11.0,24.0,89,0.00,,,-99.99,Weather View 32 v60,2014-02-21 06:55:00,
2014-02-21 01:00:00,16.0,13.3,29.31,North,0,15.0,24.0,89,0.00,,,-99.99,Weather View 32 v60,2014-02-21 07:00:00,
2014-02-21 01:05:00,16.0,13.3,29.32,North,0,6.0,24.0,89,0.00,,,-99.99,Weather View 32 v60,2014-02-21 07:05:00,
2014-02-21 01:10:00,16.0,13.3,29.32,North,0,12.0,24.0,89,0.00,,,-99.99,Weather View 32 v60,2014-02-21 07:10:00,
2014-02-21 01:15:00,16.0,13.3,29.31,NE,45,13.0,22.0,89,0.00,,,-99.99,Weather View 32 v60,2014-02-21 07:15:00,
2014-02-21 01:20:00,16.0,13.3,29.32,NNE,22,8.0,22.0,89,0.00,,,-99.99,Weather View 32 v60,2014-02-21 07:20:00,
2014-02-21 01:30:00,15.0,12.3,29.32,North,0,10.0,23.0,89,0.00,,,-99.99,Weather View 32 v60,2014-02-21 07:30:00,
2014-02-21 01:35:00,15.0,12.3,29.32,NNE,22,5.0,23.0,89,0.00,,,-99.99,Weather View 32 v60,2014-02-21 07:35:00,
2014-02-21 01:40:00,15.0,12.3,29.32,NNW,338,13.0,23.0,89,0.00,,,-99.99,Weather View 32 v60,2014-02-21 07:40:00,
2014-02-21 01:45:00,15.0,12.3,29.32,NNE,22,5.0,23.0,89,0.00,,,-99.99,Weather View 32 v60,2014-02-21 07:45:00,
2014-02-21 01:50:00,15.0,12.3,29.32,North,0,9.0,23.0,89,0.00,,,-99.99,Weather View 32 v60,2014-02-21 07:50:00,
2014-02-21 01:55:00,15.0,12.3,29.32,NNW,338,6.0,23.0,89,0.00,,,-99.99,Weather View 32 v60,2014-02-21 07:55:00,
2014-02-21 02:00:00,14.0,11.4,29.32,NNW,338,5.0,23.0,89,0.00,,,-99.99,Weather View 32 v60,2014-02-21 08:00:00,
2014-02-21 02:10:00,14.0,11.1,29.32,North,0,13.0,23.0,88,0.00,,,-99.99,Weather View 32 v60,2014-02-21 08:10:00,
2014-02-21 02:15:00,14.0,11.4,29.32,North,0,6.0,23.0,89,0.00,,,-99.99,Weather View 32 v60,2014-02-21 08:15:00,
2014-02-21 02:20:00,14.0,11.1,29.32,North,0,10.0,23.0,88,0.00,,,-99.99,Weather View 32 v60,2014-02-21 08:20:00,
2014-02-21 02:25:00,14.0,11.1,29.32,NNW,338,5.0,23.0,88,0.00,,,-99.99,Weather View 32 v60,2014-02-21 08:25:00,
2014-02-21 02:30:00,14.0,11.1,29.33,North,0,6.0,20.0,88,0.00,,,-99.99,Weather View 32 v60,2014-02-21 08:30:00,
2014-02-21 02:35:00,14.0,11.1,29.33,NNW,338,5.0,20.0,88,0.00,,,-99.99,Weather View 32 v60,2014-02-21 08:35:00,
2014-02-21 02:41:00,13.0,10.1,29.33,NNW,338,14.0,20.0,88,0.00,,,-99.99,Weather View 32 v60,2014-02-21 08:41:00,
2014-02-21 02:50:00,13.0,10.1,29.33,NNW,338,5.0,20.0,88,0.00,,,-99.99,Weather View 32 v60,2014-02-21 08:50:00,
2014-02-21 02:55:00,13.0,10.1,29.33,NNW,338,6.0,20.0,88,0.00,,,-99.99,Weather View 32 v60,2014-02-21 08:55:00,
2014-02-21 03:00:00,13.0,10.1,29.33,NW,315,6.0,20.0,88,0.00,,,-99.99,Weather View 32 v60,2014-02-21 09:00:00,
2014-02-21 03:05:00,13.0,10.1,29.34,NW,315,10.0,23.0,88,0.00,,,-99.99,Weather View 32 v60,2014-02-21 09:05:00,
2014-02-21 03:10:00,13.0,10.1,29.34,North,0,6.0,23.0,88,0.00,,,-99.99,Weather View 32 v60,2014-02-21 09:10:00,
2014-02-21 03:20:00,13.0,10.1,29.35,NW,315,9.0,23.0,88,0.00,,,-99.99,Weather View 32 v60,2014-02-21 09:20:00,
2014-02-21 03:30:00,12.0,9.1,29.35,West,270,6.0,23.0,88,0.00,,,-99.99,Weather View 32 v60,2014-02-21 09:30:00,
2014-02-21 03:35:00,12.0,9.1,29.35,NW,315,8.0,23.0,88,0.00,,,-99.99,Weather View 32 v60,2014-02-21 09:35:00,
2014-02-21 03:40:00,12.0,9.1,29.36,NNW,338,7.0,23.0,88,0.00,,,-99.99,Weather View 32 v60,2014-02-21 09:40:00,
2014-02-21 03:45:00,12.0,9.1,29.36,NW,315,3.0,23.0,88,0.00,,,-99.99,Weather View 32 v60,2014-02-21 09:45:00,
2014-02-21 03:50:00,12.0,9.1,29.36,North,0,5.0,23.0,88,0.00,,,-99.99,Weather View 32 v60,2014-02-21 09:50:00,
2014-02-21 03:55:00,12.0,9.1,29.36,North,0,10.0,23.0,88,0.00,,,-99.99,Weather View 32 v60,2014-02-21 09:55:00,
2014-02-21 04:00:00,11.0,8.1,29.36,NNW,338,16.0,23.0,88,0.00,,,-99.99,Weather View 32 v60,2014-02-21 10:00:00,
2014-02-21 04:05:00,11.0,8.1,29.37,WNW,292,2.0,18.0,88,0.00,,,-99.99,Weather View 32 v60,2014-02-21 10:05:00,
2014-02-21 04:10:00,11.0,8.1,29.37,NNE,22,9.0,18.0,88,0.00,,,-99.99,Weather View 32 v60,2014-02-21 10:10:00,
2014-02-21 04:15:00,11.0,8.1,29.37,NNW,338,6.0,18.0,88,0.00,,,-99.99,Weather View 32 v60,2014-02-21 10:15:00,
2014-02-21 04:20:00,11.0,8.1,29.37,NNW,338,11.0,18.0,88,0.00,,,-99.99,Weather View 32 v60,2014-02-21 10:20:00,
2014-02-21 04:30:00,10.0,7.2,29.38,North,0,7.0,21.0,88,0.00,,,-99.99,Weather View 32 v60,2014-02-21 10:30:00,
2014-02-21 04:35:00,10.0,7.2,29.38,WNW,292,6.0,21.0,88,0.00,,,-99.99,Weather View 32 v60,2014-02-21 10:35:00,
2014-02-21 04:40:00,10.0,7.2,29.38,NNW,338,3.0,21.0,88,0.00,,,-99.99,Weather View 32 v60,2014-02-21 10:40:00,
2014-02-21 04:45:00,10.0,7.2,29.38,NNW,338,12.0,21.0,88,0.00,,,-99.99,Weather View 32 v60,2014-02-21 10:45:00,
2014-02-21 04:50:00,10.0,7.2,29.39,WNW,292,6.0,23.0,88,0.00,,,-99.99,Weather View 32 v60,2014-02-21 10:50:00,
2014-02-21 05:00:00,10.0,7.2,29.39,NNW,338,3.0,23.0,88,0.00,,,-99.99,Weather View 32 v60,2014-02-21 11:00:00,
2014-02-21 05:05:00,10.0,7.2,29.38,NNW,338,3.0,23.0,88,0.00,,,-99.99,Weather View 32 v60,2014-02-21 11:05:00,
2014-02-21 05:10:00,10.0,6.9,29.39,NW,315,5.0,23.0,87,0.00,,,-99.99,Weather View 32 v60,2014-02-21 11:10:00,
2014-02-21 05:20:00,10.0,6.9,29.39,WNW,292,6.0,23.0,87,0.00,,,-99.99,Weather View 32 v60,2014-02-21 11:20:00,
2014-02-21 05:25:00,10.0,6.9,29.39,North,0,10.0,23.0,87,0.00,,,-99.99,Weather View 32 v60,2014-02-21 11:25:00,
2014-02-21 05:30:00,10.0,6.9,29.39,North,0,10.0,23.0,87,0.00,,,-99.99,Weather View 32 v60,2014-02-21 11:30:00,
2014-02-21 05:35:00,10.0,6.9,29.39,North,0,11.0,23.0,87,0.00,,,-99.99,Weather View 32 v60,2014-02-21 11:35:00,
2014-02-21 05:40:00,10.0,6.9,29.40,NNW,338,8.0,23.0,87,0.00,,,-99.99,Weather View 32 v60,2014-02-21 11:40:00,
2014-02-21 05:45:00,9.0,5.9,29.40,NW,315,8.0,23.0,87,0.00,,,-99.99,Weather View 32 v60,2014-02-21 11:45:00,
2014-02-21 05:50:00,9.0,5.9,29.40,North,0,7.0,20.0,87,0.00,,,-99.99,Weather View 32 v60,2014-02-21 11:50:00,
2014-02-21 05:55:00,9.0,5.9,29.40,NW,315,2.0,20.0,87,0.00,,,-99.99,Weather View 32 v60,2014-02-21 11:55:00,
2014-02-21 06:00:00,9.0,5.9,29.40,NW,315,10.0,20.0,87,0.00,,,-99.99,Weather View 32 v60,2014-02-21 12:00:00,
2014-02-21 06:05:00,9.0,5.9,29.41,NNW,338,8.0,20.0,87,0.00,,,-99.99,Weather View 32 v60,2014-02-21 12:05:00,
2014-02-21 06:10:00,9.0,5.9,29.41,NNW,338,6.0,20.0,87,0.00,,,-99.99,Weather View 32 v60,2014-02-21 12:10:00,
2014-02-21 06:15:00,9.0,5.9,29.41,NNW,338,5.0,20.0,87,0.00,,,-99.99,Weather View 32 v60,2014-02-21 12:15:00,
2014-02-21 06:20:00,9.0,5.9,29.41,NNW,338,9.0,20.0,87,0.00,,,-99.99,Weather View 32 v60,2014-02-21 12:20:00,
2014-02-21 06:25:00,9.0,5.9,29.41,NW,315,16.0,20.0,87,0.00,,,-99.99,Weather View 32 v60,2014-02-21 12:25:00,
2014-02-21 06:30:00,9.0,5.9,29.41,NW,315,8.0,18.0,87,0.00,,,-99.99,Weather View 32 v60,2014-02-21 12:30:00,
2014-02-21 06:35:00,9.0,5.9,29.41,NW,315,4.0,18.0,87,0.00,,,-99.99,Weather View 32 v60,2014-02-21 12:35:00,
2014-02-21 06:44:00,9.0,5.9,29.41,NW,315,4.0,18.0,87,0.00,,,-99.99,Weather View 32 v60,2014-02-21 12:44:00,
2014-02-21 06:50:00,9.0,5.9,29.41,WNW,292,5.0,18.0,87,0.00,,,-99.99,Weather View 32 v60,2014-02-21 12:50:00,
2014-02-21 06:55:00,9.0,5.9,29.42,NNW,338,3.0,18.0,87,0.00,,,-99.99,Weather View 32 v60,2014-02-21 12:55:00,
2014-02-21 07:00:00,9.0,5.9,29.41,NW,315,6.0,16.0,87,0.00,,,-99.99,Weather View 32 v60,2014-02-21 13:00:00,
2014-02-21 07:10:00,9.0,5.9,29.42,WNW,292,1.0,16.0,87,0.00,,,-99.99,Weather View 32 v60,2014-02-21 13:10:00,
2014-02-21 07:15:00,9.0,5.9,29.43,NW,315,13.0,16.0,87,0.00,,,-99.99,Weather View 32 v60,2014-02-21 13:15:00,
2014-02-21 07:20:00,9.0,5.9,29.43,North,0,5.0,16.0,87,0.00,,,-99.99,Weather View 32 v60,2014-02-21 13:20:00,
2014-02-21 07:25:00,9.0,5.9,29.43,West,270,5.0,16.0,87,0.00,,,-99.99,Weather View 32 v60,2014-02-21 13:25:00,
2014-02-21 07:30:00,9.0,5.9,29.43,WNW,292,4.0,18.0,87,0.00,,,-99.99,Weather View 32 v60,2014-02-21 13:30:00,
2014-02-21 07:35:00,9.0,5.7,29.44,WNW,292,6.0,18.0,86,0.00,,,-99.99,Weather View 32 v60,2014-02-21 13:35:00,
2014-02-21 07:40:00,9.0,5.7,29.44,NNW,338,5.0,18.0,86,0.00,,,-99.99,Weather View 32 v60,2014-02-21 13:40:00,
2014-02-21 07:45:00,9.0,5.7,29.44,NNW,338,8.0,23.0,86,0.00,,,-99.99,Weather View 32 v60,2014-02-21 13:45:00,
2014-02-21 07:50:00,9.0,5.7,29.44,North,0,4.0,23.0,86,0.00,,,-99.99,Weather View 32 v60,2014-02-21 13:50:00,
2014-02-21 07:55:00,9.0,5.7,29.44,NW,315,9.0,23.0,86,0.00,,,-99.99,Weather View 32 v60,2014-02-21 13:55:00,
2014-02-21 08:05:00,9.0,5.7,29.45,NNW,338,3.0,23.0,86,0.00,,,-99.99,Weather View 32 v60,2014-02-21 14:05:00,
2014-02-21 08:10:00,9.0,5.7,29.45,NW,315,7.0,23.0,86,0.00,,,-99.99,Weather View 32 v60,2014-02-21 14:10:00,
2014-02-21 08:15:00,9.0,5.7,29.45,NW,315,3.0,23.0,86,0.00,,,-99.99,Weather View 32 v60,2014-02-21 14:15:00,
2014-02-21 08:20:00,10.0,6.7,29.45,NNW,338,7.0,23.0,86,0.00,,,-99.99,Weather View 32 v60,2014-02-21 14:20:00,
2014-02-21 08:25:00,10.0,6.7,29.45,WNW,292,2.0,23.0,86,0.00,,,-99.99,Weather View 32 v60,2014-02-21 14:25:00,
2014-02-21 08:30:00,10.0,6.7,29.45,WNW,292,5.0,23.0,86,0.00,,,-99.99,Weather View 32 v60,2014-02-21 14:30:00,
2014-02-21 08:35:00,10.0,6.7,29.45,NW,315,7.0,23.0,86,0.00,,,-99.99,Weather View 32 v60,2014-02-21 14:35:00,
2014-02-21 08:40:00,10.0,6.7,29.45,NNW,338,5.0,23.0,86,0.00,,,-99.99,Weather View 32 v60,2014-02-21 14:40:00,
2014-02-21 08:45:00,10.0,6.7,29.45,WNW,292,6.0,16.0,86,0.00,,,-99.99,Weather View 32 v60,2014-02-21 14:45:00,
2014-02-21 08:55:00,10.0,6.7,29.46,WNW,292,8.0,16.0,86,0.00,,,-99.99,Weather View 32 v60,2014-02-21 14:55:00,
2014-02-21 09:05:00,10.0,6.7,29.45,NW,315,6.0,14.0,86,0.00,,,-99.99,Weather View 32 v60,2014-02-21 15:05:00,
2014-02-21 09:10:00,10.0,6.7,29.46,NNW,338,7.0,14.0,86,0.00,,,-99.99,Weather View 32 v60,2014-02-21 15:10:00,
2014-02-21 09:20:00,10.0,6.7,29.46,WNW,292,5.0,14.0,86,0.00,,,-99.99,Weather View 32 v60,2014-02-21 15:20:00,
2014-02-21 09:25:00,10.0,6.7,29.46,NW,315,4.0,14.0,86,0.00,,,-99.99,Weather View 32 v60,2014-02-21 15:25:00,
2014-02-21 09:30:00,10.0,6.7,29.46,West,270,6.0,14.0,86,0.00,,,-99.99,Weather View 32 v60,2014-02-21 15:30:00,
2014-02-21 09:35:00,10.0,6.7,29.46,WNW,292,3.0,13.0,86,0.00,,,-99.99,Weather View 32 v60,2014-02-21 15:35:00,
2014-02-21 09:40:00,10.0,6.7,29.47,WNW,292,5.0,13.0,86,0.00,,,-99.99,Weather View 32 v60,2014-02-21 15:40:00,
2014-02-21 09:45:00,10.0,6.7,29.47,NNW,338,9.0,16.0,86,0.00,,,-99.99,Weather View 32 v60,2014-02-21 15:45:00,
2014-02-21 09:55:00,10.0,6.7,29.47,West,270,2.0,17.0,86,0.00,,,-99.99,Weather View 32 v60,2014-02-21 15:55:00,
2014-02-21 10:00:00,10.0,6.7,29.47,WNW,292,4.0,17.0,86,0.00,,,-99.99,Weather View 32 v60,2014-02-21 16:00:00,
2014-02-21 10:05:00,10.0,6.7,29.47,WNW,292,8.0,19.0,86,0.00,,,-99.99,Weather View 32 v60,2014-02-21 16:05:00,
2014-02-21 10:15:00,10.0,6.4,29.47,West,270,7.0,19.0,85,0.00,,,-99.99,Weather View 32 v60,2014-02-21 16:15:00,
2014-02-21 10:25:00,10.0,6.4,29.48,NW,315,5.0,19.0,85,0.00,,,-99.99,Weather View 32 v60,2014-02-21 16:25:00,
2014-02-21 10:30:00,10.0,6.4,29.48,NW,315,9.0,19.0,85,0.00,,,-99.99,Weather View 32 v60,2014-02-21 16:30:00,
2014-02-21 10:35:00,10.0,6.4,29.48,North,0,4.0,19.0,85,0.00,,,-99.99,Weather View 32 v60,2014-02-21 16:35:00,
2014-02-21 10:45:00,10.0,6.4,29.48,WNW,292,6.0,19.0,85,0.00,,,-99.99,Weather View 32 v60,2014-02-21 16:45:00,
2014-02-21 10:50:00,10.0,6.4,29.48,WSW,248,3.0,19.0,85,0.00,,,-99.99,Weather View 32 v60,2014-02-21 16:50:00,
2014-02-21 10:55:00,10.0,6.1,29.48,WNW,292,7.0,19.0,84,0.00,,,-99.99,Weather View 32 v60,2014-02-21 16:55:00,
2014-02-21 11:00:00,10.0,6.1,29.48,WNW,292,9.0,19.0,84,0.00,,,-99.99,Weather View 32 v60,2014-02-21 17:00:00,
2014-02-21 11:05:00,10.0,6.1,29.49,NW,315,8.0,19.0,84,0.00,,,-99.99,Weather View 32 v60,2014-02-21 17:05:00,
2014-02-21 11:10:00,10.0,6.1,29.49,NW,315,5.0,24.0,84,0.00,,,-99.99,Weather View 32 v60,2014-02-21 17:10:00,
2014-02-21 11:15:00,10.0,6.1,29.49,West,270,3.0,24.0,84,0.00,,,-99.99,Weather View 32 v60,2014-02-21 17:15:00,
2014-02-21 11:25:00,10.0,6.1,29.50,WNW,292,9.0,24.0,84,0.00,,,-99.99,Weather View 32 v60,2014-02-21 17:25:00,
2014-02-21 11:30:00,10.0,6.1,29.50,North,0,6.0,24.0,84,0.00,,,-99.99,Weather View 32 v60,2014-02-21 17:30:00,
2014-02-21 11:35:00,10.0,5.9,29.50,NNW,338,9.0,24.0,83,0.00,,,-99.99,Weather View 32 v60,2014-02-21 17:35:00,
2014-02-21 11:45:00,9.0,4.9,29.50,NW,315,9.0,24.0,83,0.00,,,-99.99,Weather View 32 v60,2014-02-21 17:45:00,
2014-02-21 11:50:00,10.0,5.9,29.50,WNW,292,5.0,24.0,83,0.00,,,-99.99,Weather View 32 v60,2014-02-21 17:50:00,
2014-02-21 12:00:00,10.0,5.9,29.50,NNW,338,10.0,24.0,83,0.00,,,-99.99,Weather View 32 v60,2014-02-21 18:00:00,
2014-02-21 12:05:00,10.0,5.9,29.50,NW,315,11.0,24.0,83,0.00,,,-99.99,Weather View 32 v60,2014-02-21 18:05:00,
2014-02-21 12:10:00,10.0,5.9,29.51,WSW,248,9.0,18.0,83,0.00,,,-99.99,Weather View 32 v60,2014-02-21 18:10:00,
2014-02-21 12:15:00,10.0,5.9,29.50,North,0,10.0,19.0,83,0.00,,,-99.99,Weather View 32 v60,2014-02-21 18:15:00,
2014-02-21 12:25:00,11.0,6.9,29.51,WNW,292,9.0,19.0,83,0.00,,,-99.99,Weather View 32 v60,2014-02-21 18:25:00,
2014-02-21 12:30:00,10.0,5.6,29.51,NNW,338,6.0,19.0,82,0.00,,,-99.99,Weather View 32 v60,2014-02-21 18:30:00,
2014-02-21 12:35:00,10.0,5.6,29.51,WNW,292,5.0,19.0,82,0.00,,,-99.99,Weather View 32 v60,2014-02-21 18:35:00,
2014-02-21 12:40:00,10.0,5.6,29.51,NNW,338,7.0,19.0,82,0.00,,,-99.99,Weather View 32 v60,2014-02-21 18:40:00,
2014-02-21 12:47:00,10.0,5.6,29.51,NNW,338,6.0,19.0,82,0.00,,,-99.99,Weather View 32 v60,2014-02-21 18:47:00,
2014-02-21 12:55:00,10.0,5.6,29.52,West,270,6.0,19.0,82,0.00,,,-99.99,Weather View 32 v60,2014-02-21 18:55:00,
2014-02-21 13:00:00,10.0,5.3,29.52,WNW,292,8.0,19.0,81,0.00,,,-99.99,Weather View 32 v60,2014-02-21 19:00:00,
2014-02-21 13:05:00,10.0,5.3,29.52,WNW,292,11.0,19.0,81,0.00,,,-99.99,Weather View 32 v60,2014-02-21 19:05:00,
2014-02-21 13:10:00,10.0,5.3,29.52,NW,315,7.0,19.0,81,0.00,,,-99.99,Weather View 32 v60,2014-02-21 19:10:00,
2014-02-21 13:20:00,10.0,5.3,29.53,NW,315,5.0,21.0,81,0.00,,,-99.99,Weather View 32 v60,2014-02-21 19:20:00,
2014-02-21 13:25:00,11.0,6.3,29.53,WNW,292,5.0,21.0,81,0.00,,,-99.99,Weather View 32 v60,2014-02-21 19:25:00,
2014-02-21 13:30:00,11.0,6.3,29.53,WNW,292,5.0,21.0,81,0.00,,,-99.99,Weather View 32 v60,2014-02-21 19:30:00,
2014-02-21 13:35:00,11.0,6.3,29.53,WNW,292,8.0,21.0,81,0.00,,,-99.99,Weather View 32 v60,2014-02-21 19:35:00,
2014-02-21 13:40:00,11.0,6.3,29.54,WSW,248,8.0,21.0,81,0.00,,,-99.99,Weather View 32 v60,2014-02-21 19:40:00,
2014-02-21 13:45:00,11.0,6.3,29.54,NNW,338,5.0,21.0,81,0.00,,,-99.99,Weather View 32 v60,2014-02-21 19:45:00,
2014-02-21 13:50:00,11.0,6.3,29.54,West,270,5.0,21.0,81,0.00,,,-99.99,Weather View 32 v60,2014-02-21 19:50:00,
2014-02-21 13:55:00,11.0,6.3,29.54,WNW,292,3.0,21.0,81,0.00,,,-99.99,Weather View 32 v60,2014-02-21 19:55:00,
2014-02-21 14:00:00,12.0,7.3,29.54,NW,315,6.0,21.0,81,0.00,,,-99.99,Weather View 32 v60,2014-02-21 20:00:00,
2014-02-21 14:05:00,12.0,7.0,29.54,NW,315,6.0,21.0,80,0.00,,,-99.99,Weather View 32 v60,2014-02-21 20:05:00,
2014-02-21 14:10:00,12.0,7.0,29.54,NNW,338,5.0,21.0,80,0.00,,,-99.99,Weather View 32 v60,2014-02-21 20:10:00,
2014-02-21 14:15:00,12.0,7.0,29.54,NW,315,11.0,21.0,80,0.00,,,-99.99,Weather View 32 v60,2014-02-21 20:15:00,
2014-02-21 14:20:00,12.0,7.0,29.55,NW,315,8.0,19.0,80,0.00,,,-99.99,Weather View 32 v60,2014-02-21 20:20:00,
2014-02-21 14:25:00,12.0,7.0,29.55,North,0,6.0,19.0,80,0.00,,,-99.99,Weather View 32 v60,2014-02-21 20:25:00,
2014-02-21 14:30:00,12.0,7.0,29.55,WNW,292,5.0,19.0,80,0.00,,,-99.99,Weather View 32 v60,2014-02-21 20:30:00,
2014-02-21 14:40:00,12.0,6.7,29.55,WSW,248,5.0,21.0,79,0.00,,,-99.99,Weather View 32 v60,2014-02-21 20:40:00,
2014-02-21 14:45:00,12.0,7.0,29.56,NW,315,18.0,21.0,80,0.00,,,-99.99,Weather View 32 v60,2014-02-21 20:45:00,
2014-02-21 14:50:00,12.0,6.7,29.56,NW,315,13.0,21.0,79,0.00,,,-99.99,Weather View 32 v60,2014-02-21 20:50:00,
2014-02-21 14:55:00,12.0,6.7,29.56,WNW,292,5.0,21.0,79,0.00,,,-99.99,Weather View 32 v60,2014-02-21 20:55:00,
2014-02-21 15:00:00,12.0,6.7,29.57,NNW,338,9.0,21.0,79,0.00,,,-99.99,Weather View 32 v60,2014-02-21 21:00:00,
2014-02-21 15:05:00,12.0,6.7,29.57,NW,315,11.0,21.0,79,0.00,,,-99.99,Weather View 32 v60,2014-02-21 21:05:00,
2014-02-21 15:10:00,12.0,6.7,29.57,NNW,338,10.0,21.0,79,0.00,,,-99.99,Weather View 32 v60,2014-02-21 21:10:00,
2014-02-21 15:20:00,12.0,6.7,29.58,WNW,292,9.0,23.0,79,0.00,,,-99.99,Weather View 32 v60,2014-02-21 21:20:00,
2014-02-21 15:25:00,12.0,6.7,29.58,West,270,9.0,23.0,79,0.00,,,-99.99,Weather View 32 v60,2014-02-21 21:25:00,
2014-02-21 15:30:00,12.0,6.5,29.58,NW,315,8.0,23.0,78,0.00,,,-99.99,Weather View 32 v60,2014-02-21 21:30:00,
2014-02-21 15:35:00,12.0,6.5,29.59,NW,315,8.0,23.0,78,0.00,,,-99.99,Weather View 32 v60,2014-02-21 21:35:00,
2014-02-21 15:40:00,12.0,6.5,29.59,NW,315,6.0,23.0,78,0.00,,,-99.99,Weather View 32 v60,2014-02-21 21:40:00,
2014-02-21 15:45:00,12.0,6.5,29.59,West,270,6.0,23.0,78,0.00,,,-99.99,Weather View 32 v60,2014-02-21 21:45:00,
2014-02-21 15:50:00,12.0,6.5,29.59,WNW,292,8.0,23.0,78,0.00,,,-99.99,Weather View 32 v60,2014-02-21 21:50:00,
2014-02-21 15:55:00,12.0,6.2,29.59,WNW,292,6.0,23.0,77,0.00,,,-99.99,Weather View 32 v60,2014-02-21 21:55:00,
2014-02-21 16:00:00,12.0,6.2,29.59,West,270,10.0,23.0,77,0.00,,,-99.99,Weather View 32 v60,2014-02-21 22:00:00,
2014-02-21 16:05:00,12.0,6.2,29.60,NW,315,13.0,23.0,77,0.00,,,-99.99,Weather View 32 v60,2014-02-21 22:05:00,
2014-02-21 16:10:00,12.0,6.5,29.60,WNW,292,9.0,23.0,78,0.00,,,-99.99,Weather View 32 v60,2014-02-21 22:10:00,
2014-02-21 16:15:00,12.0,6.2,29.61,WNW,292,19.0,23.0,77,0.00,,,-99.99,Weather View 32 v60,2014-02-21 22:15:00,
2014-02-21 16:20:00,12.0,6.2,29.61,NW,315,6.0,22.0,77,0.00,,,-99.99,Weather View 32 v60,2014-02-21 22:20:00,
2014-02-21 16:25:00,12.0,6.2,29.61,WSW,248,4.0,22.0,77,0.00,,,-99.99,Weather View 32 v60,2014-02-21 22:25:00,
2014-02-21 16:30:00,12.0,6.2,29.61,NNW,338,6.0,22.0,77,0.00,,,-99.99,Weather View 32 v60,2014-02-21 22:30:00,
2014-02-21 16:35:00,12.0,6.2,29.62,NW,315,14.0,22.0,77,0.00,,,-99.99,Weather View 32 v60,2014-02-21 22:35:00,
2014-02-21 16:40:00,12.0,6.2,29.62,NW,315,14.0,22.0,77,0.00,,,-99.99,Weather View 32 v60,2014-02-21 22:40:00,
2014-02-21 16:45:00,12.0,5.9,29.63,WNW,292,7.0,24.0,76,0.00,,,-99.99,Weather View 32 v60,2014-02-21 22:45:00,
2014-02-21 16:55:00,12.0,5.9,29.63,WNW,292,6.0,24.0,76,0.00,,,-99.99,Weather View 32 v60,2014-02-21 22:55:00,
2014-02-21 17:00:00,12.0,5.9,29.63,WNW,292,6.0,24.0,76,0.00,,,-99.99,Weather View 32 v60,2014-02-21 23:00:00,
2014-02-21 17:05:00,12.0,5.9,29.64,WNW,292,5.0,24.0,76,0.00,,,-99.99,Weather View 32 v60,2014-02-21 23:05:00,
2014-02-21 17:10:00,12.0,5.9,29.64,NW,315,5.0,24.0,76,0.00,,,-99.99,Weather View 32 v60,2014-02-21 23:10:00,
2014-02-21 17:15:00,12.0,5.9,29.64,WNW,292,11.0,24.0,76,0.00,,,-99.99,Weather View 32 v60,2014-02-21 23:15:00,
2014-02-21 17:20:00,11.0,4.9,29.64,West,270,5.0,24.0,76,0.00,,,-99.99,Weather View 32 v60,2014-02-21 23:20:00,
2014-02-21 17:30:00,11.0,4.6,29.65,WNW,292,8.0,24.0,75,0.00,,,-99.99,Weather View 32 v60,2014-02-21 23:30:00,
2014-02-21 17:35:00,11.0,4.6,29.65,NW,315,10.0,24.0,75,0.00,,,-99.99,Weather View 32 v60,2014-02-21 23:35:00,
2014-02-21 17:40:00,11.0,4.9,29.65,West,270,5.0,24.0,76,0.00,,,-99.99,Weather View 32 v60,2014-02-21 23:40:00,
2014-02-21 17:45:00,11.0,4.9,29.66,NW,315,6.0,19.0,76,0.00,,,-99.99,Weather View 32 v60,2014-02-21 23:45:00,
2014-02-21 17:50:00,10.0,4.0,29.67,WNW,292,9.0,19.0,76,0.00,,,-99.99,Weather View 32 v60,2014-02-21 23:50:00,
2014-02-21 18:00:00,10.0,4.0,29.67,NW,315,4.0,19.0,76,0.00,,,-99.99,Weather View 32 v60,2014-02-22 00:00:00,
2014-02-21 18:05:00,10.0,4.0,29.67,WNW,292,8.0,19.0,76,0.00,,,-99.99,Weather View 32 v60,2014-02-22 00:05:00,
2014-02-21 18:10:00,10.0,4.0,29.68,West,270,4.0,19.0,76,0.00,,,-99.99,Weather View 32 v60,2014-02-22 00:10:00,
2014-02-21 18:20:00,10.0,4.0,29.68,NNW,338,6.0,18.0,76,0.00,,,-99.99,Weather View 32 v60,2014-02-22 00:20:00,
2014-02-21 18:25:00,10.0,4.0,29.68,WNW,292,8.0,18.0,76,0.00,,,-99.99,Weather View 32 v60,2014-02-22 00:25:00,
2014-02-21 18:30:00,10.0,4.0,29.69,West,270,7.0,18.0,76,0.00,,,-99.99,Weather View 32 v60,2014-02-22 00:30:00,
2014-02-21 18:35:00,9.0,3.0,29.69,NNW,338,6.0,18.0,76,0.00,,,-99.99,Weather View 32 v60,2014-02-22 00:35:00,
2014-02-21 18:40:00,9.0,3.0,29.69,West,270,8.0,18.0,76,0.00,,,-99.99,Weather View 32 v60,2014-02-22 00:40:00,
2014-02-21 18:50:00,9.0,3.3,29.70,NW,315,11.0,18.0,77,0.00,,,-99.99,Weather View 32 v60,2014-02-22 00:50:00,
2014-02-21 18:55:00,9.0,3.3,29.70,WNW,292,5.0,18.0,77,0.00,,,-99.99,Weather View 32 v60,2014-02-22 00:55:00,
2014-02-21 19:05:00,9.0,3.3,29.70,West,270,10.0,19.0,77,0.00,,,-99.99,Weather View 32 v60,2014-02-22 01:05:00,
2014-02-21 19:10:00,10.0,4.2,29.71,WNW,292,8.0,19.0,77,0.00,,,-99.99,Weather View 32 v60,2014-02-22 01:10:00,
2014-02-21 19:20:00,10.0,4.2,29.71,WNW,292,5.0,20.0,77,0.00,,,-99.99,Weather View 32 v60,2014-02-22 01:20:00,
2014-02-21 19:25:00,10.0,4.2,29.71,NNW,338,7.0,20.0,77,0.00,,,-99.99,Weather View 32 v60,2014-02-22 01:25:00,
2014-02-21 19:30:00,10.0,4.2,29.71,NNW,338,5.0,20.0,77,0.00,,,-99.99,Weather View 32 v60,2014-02-22 01:30:00,
2014-02-21 19:35:00,9.0,3.3,29.72,WNW,292,9.0,20.0,77,0.00,,,-99.99,Weather View 32 v60,2014-02-22 01:35:00,
2014-02-21 19:40:00,10.0,4.2,29.72,NW,315,5.0,20.0,77,0.00,,,-99.99,Weather View 32 v60,2014-02-22 01:40:00,
2014-02-21 19:45:00,10.0,4.2,29.72,WNW,292,5.0,20.0,77,0.00,,,-99.99,Weather View 32 v60,2014-02-22 01:45:00,
2014-02-21 19:51:00,10.0,4.2,29.72,NW,315,3.0,20.0,77,0.00,,,-99.99,Weather View 32 v60,2014-02-22 01:51:00,
2014-02-21 20:00:00,9.0,3.3,29.73,NW,315,11.0,20.0,77,0.00,,,-99.99,Weather View 32 v60,2014-02-22 02:00:00,
2014-02-21 20:05:00,9.0,3.3,29.73,NNW,338,6.0,20.0,77,0.00,,,-99.99,Weather View 32 v60,2014-02-22 02:05:00,
2014-02-21 20:10:00,9.0,3.3,29.73,WNW,292,6.0,20.0,77,0.00,,,-99.99,Weather View 32 v60,2014-02-22 02:10:00,
2014-02-21 20:15:00,9.0,3.3,29.73,WNW,292,5.0,19.0,77,0.00,,,-99.99,Weather View 32 v60,2014-02-22 02:15:00,
2014-02-21 20:20:00,9.0,3.3,29.74,NW,315,5.0,19.0,77,0.00,,,-99.99,Weather View 32 v60,2014-02-22 02:20:00,
2014-02-21 20:30:00,9.0,3.3,29.74,WNW,292,8.0,19.0,77,0.00,,,-99.99,Weather View 32 v60,2014-02-22 02:30:00,
2014-02-21 20:35:00,9.0,3.3,29.74,WNW,292,8.0,19.0,77,0.00,,,-99.99,Weather View 32 v60,2014-02-22 02:35:00,
2014-02-21 20:40:00,9.0,3.3,29.74,NW,315,8.0,19.0,77,0.00,,,-99.99,Weather View 32 v60,2014-02-22 02:40:00,
2014-02-21 20:45:00,9.0,3.3,29.75,NW,315,5.0,19.0,77,0.00,,,-99.99,Weather View 32 v60,2014-02-22 02:45:00,
2014-02-21 20:50:00,9.0,3.3,29.75,WNW,292,1.0,19.0,77,0.00,,,-99.99,Weather View 32 v60,2014-02-22 02:50:00,
2014-02-21 21:00:00,8.0,2.3,29.75,WSW,248,5.0,19.0,77,0.00,,,-99.99,Weather View 32 v60,2014-02-22 03:00:00,
2014-02-21 21:10:00,8.0,2.6,29.75,NW,315,4.0,16.0,78,0.00,,,-99.99,Weather View 32 v60,2014-02-22 03:10:00,
2014-02-21 21:15:00,8.0,2.6,29.76,NW,315,11.0,16.0,78,0.00,,,-99.99,Weather View 32 v60,2014-02-22 03:15:00,
2014-02-21 21:20:00,8.0,2.6,29.76,NW,315,6.0,16.0,78,0.00,,,-99.99,Weather View 32 v60,2014-02-22 03:20:00,
2014-02-21 21:25:00,8.0,2.6,29.76,NW,315,9.0,16.0,78,0.00,,,-99.99,Weather View 32 v60,2014-02-22 03:25:00,
2014-02-21 21:35:00,8.0,2.6,29.76,West,270,5.0,15.0,78,0.00,,,-99.99,Weather View 32 v60,2014-02-22 03:35:00,
2014-02-21 21:40:00,7.0,1.6,29.77,West,270,3.0,13.0,78,0.00,,,-99.99,Weather View 32 v60,2014-02-22 03:40:00,
2014-02-21 21:45:00,7.0,1.6,29.77,West,270,3.0,13.0,78,0.00,,,-99.99,Weather View 32 v60,2014-02-22 03:45:00,
2014-02-21 21:50:00,7.0,1.6,29.76,WNW,292,7.0,13.0,78,0.00,,,-99.99,Weather View 32 v60,2014-02-22 03:50:00,
2014-02-21 21:55:00,8.0,2.8,29.77,NW,315,3.0,13.0,79,0.00,,,-99.99,Weather View 32 v60,2014-02-22 03:55:00,
2014-02-21 22:00:00,8.0,2.8,29.77,WNW,292,3.0,13.0,79,0.00,,,-99.99,Weather View 32 v60,2014-02-22 04:00:00,
2014-02-21 22:10:00,8.0,2.8,29.77,WNW,292,5.0,13.0,79,0.00,,,-99.99,Weather View 32 v60,2014-02-22 04:10:00,
2014-02-21 22:15:00,8.0,2.8,29.77,WNW,292,7.0,13.0,79,0.00,,,-99.99,Weather View 32 v60,2014-02-22 04:15:00,
2014-02-21 22:20:00,8.0,2.8,29.77,WNW,292,6.0,13.0,79,0.00,,,-99.99,Weather View 32 v60,2014-02-22 04:20:00,
2014-02-21 22:25:00,8.0,2.8,29.77,NW,315,5.0,13.0,79,0.00,,,-99.99,Weather View 32 v60,2014-02-22 04:25:00,
2014-02-21 22:35:00,8.0,2.8,29.77,WNW,292,6.0,13.0,79,0.00,,,-99.99,Weather View 32 v60,2014-02-22 04:35:00,
2014-02-21 22:40:00,8.0,2.8,29.77,NW,315,10.0,15.0,79,0.00,,,-99.99,Weather View 32 v60,2014-02-22 04:40:00,
2014-02-21 22:50:00,8.0,2.8,29.78,NW,315,3.0,15.0,79,0.00,,,-99.99,Weather View 32 v60,2014-02-22 04:50:00,
2014-02-21 22:55:00,8.0,2.6,29.78,WSW,248,4.0,15.0,78,0.00,,,-99.99,Weather View 32 v60,2014-02-22 04:55:00,
2014-02-21 23:05:00,8.0,2.8,29.78,WNW,292,5.0,16.0,79,0.00,,,-99.99,Weather View 32 v60,2014-02-22 05:05:00,
2014-02-21 23:10:00,8.0,2.8,29.78,WNW,292,5.0,16.0,79,0.00,,,-99.99,Weather View 32 v60,2014-02-22 05:10:00,
2014-02-21 23:15:00,8.0,2.8,29.78,WNW,292,2.0,16.0,79,0.00,,,-99.99,Weather View 32 v60,2014-02-22 05:15:00,
2014-02-21 23:20:00,8.0,2.8,29.78,WNW,292,4.0,16.0,79,0.00,,,-99.99,Weather View 32 v60,2014-02-22 05:20:00,
2014-02-21 23:25:00,8.0,2.8,29.78,West,270,5.0,16.0,79,0.00,,,-99.99,Weather View 32 v60,2014-02-22 05:25:00,
2014-02-21 23:30:00,8.0,2.8,29.79,WNW,292,4.0,16.0,79,0.00,,,-99.99,Weather View 32 v60,2014-02-22 05:30:00,
2014-02-21 23:35:00,7.0,1.9,29.79,West,270,6.0,16.0,79,0.00,,,-99.99,Weather View 32 v60,2014-02-22 05:35:00,
2014-02-21 23:40:00,7.0,1.9,29.79,WNW,292,7.0,16.0,79,0.00,,,-99.99,Weather View 32 v60,2014-02-22 05:40:00,
2014-02-21 23:45:00,7.0,1.9,29.79,WNW,292,5.0,16.0,79,0.00,,,-99.99,Weather View 32 v60,2014-02-22 05:45:00,
2014-02-21 23:50:00,7.0,1.9,29.79,NW,315,6.0,16.0,79,0.00,,,-99.99,Weather View 32 v60,2014-02-22 05:50:00,
2014-02-21 23:55:00,7.0,1.9,29.79,WNW,292,4.0,16.0,79,0.00,,,-99.99,Weather View 32 v60,2014-02-22 05:55:00,